EW3937 Weather Reports


Display with metric or nautical units.
time (UTC)temp
F
wind
direction
speed
MPH
gust
MPH
rain 1hr
in
rain 24hr
in
rain mn
in
humidity
%
barometer
mb
20260901032003 57 0 1.0 1.0 0.00 0.00 0.00 39 1010.5
20260901031503 58 0 1.0 1.0 0.00 0.00 0.00 39 1010.4
20260901031003 58 0 0.0 0.0 0.00 0.00 0.00 38 1010.4
20260901030503 59 0 1.0 1.0 0.00 0.00 0.00 38 1010.3
20260901030218 59 0 1.0 1.0 0.00 0.00 0.00 37 1010.3
20260901025503 61 0 2.0 2.0 0.00 0.00 0.00 35 1010.3
20260901025003 62 0 2.0 2.0 0.00 0.00 0.00 32 1010.2
20260901024503 64 0 1.0 1.0 0.00 0.00 0.00 31 1010.2
20260901024003 66 0 1.0 1.0 0.00 0.00 0.00 29 1010.3
20260901023503 68 0 1.0 1.0 0.00 0.00 0.00 29 1010.2
20260901023003 69 0 1.0 1.0 0.00 0.00 0.00 28 1010.3
20260901022503 71 0 2.0 2.0 0.00 0.00 0.00 27 1010.2
20260901022003 73 0 2.0 2.0 0.00 0.00 0.00 25 1010.2
20260901021503 76 0 1.0 1.0 0.00 0.00 0.00 23 1010.2
20260901021003 79 0 0.0 0.0 0.00 0.00 0.00 23 1010.3
20260901020503 80 0 1.0 1.0 0.00 0.00 0.00 25 1010.2
20260901020003 80 0 1.0 1.0 0.00 0.00 0.00 22 1010.2
20260901015503 81 0 1.0 1.0 0.00 0.00 0.00 21 1010.3
20260901015003 82 0 0.0 0.0 0.00 0.00 0.00 21 1010.4
20260901014717 82 0 1.0 1.0 0.00 0.00 0.00 22 1010.4
20260901014218 83 0 1.0 1.0 0.00 0.00 0.00 20 1010.4
20260901013503 85 0 1.0 1.0 0.00 0.00 0.00 20 1010.4
20260901013003 85 0 0.0 0.0 0.00 0.00 0.00 20 1010.5
20260901012503 85 0 1.0 1.0 0.00 0.00 0.00 19 1010.5
20260901012003 86 0 1.0 1.0 0.00 0.00 0.00 18 1010.5
20260901011503 85 0 2.0 2.0 0.00 0.00 0.00 20 1010.5
20260901011003 84 0 2.0 2.0 0.00 0.00 0.00 19 1010.5
20260901010717 84 0 0.0 2.0 0.00 0.00 0.00 20 1010.6
20260901010004 84 0 0.0 2.0 0.00 0.00 0.00 19 1010.7
20260901005717 84 0 0.0 1.0 0.00 0.00 0.00 18 1010.7
20260901005003 85 191 0.0 2.0 0.00 0.00 0.00 18 1010.9
20260901004503 84 144 0.0 2.0 0.00 0.00 0.00 19 1010.8
20260901004003 83 100 1.0 2.0 0.00 0.00 0.00 19 1010.8
20260901003503 83 71 0.0 2.0 0.00 0.00 0.00 19 1010.9
20260901003003 84 0 0.0 2.0 0.00 0.00 0.00 19 1010.9
20260901002503 84 0 0.0 0.0 0.00 0.00 0.00 19 1011.0
20260901002004 84 0 0.0 1.0 0.00 0.00 0.00 20 1011.0
20260901001503 83 0 0.0 1.0 0.00 0.00 0.00 19 1011.0
20260901001003 84 74 0.0 2.0 0.00 0.00 0.00 19 1011.1
20260901000503 84 214 1.0 2.0 0.00 0.00 0.00 18 1011.1
20260901000003 84 313 1.0 2.0 0.00 0.00 0.00 19 1011.2
20260831235718 84 346 1.0 3.0 0.00 0.00 0.00 19 1011.3
20260831235003 84 343 1.0 4.0 0.00 0.00 0.00 19 1011.3
20260831234503 84 24 1.0 3.0 0.00 0.00 0.00 19 1011.3
20260831234003 84 23 1.0 2.0 0.00 0.00 0.00 19 1011.4
20260831233503 84 349 1.0 2.0 0.00 0.00 0.00 19 1011.5
20260831233003 85 295 1.0 2.0 0.00 0.00 0.00 20 1011.5
20260831232503 85 214 1.0 4.0 0.00 0.00 0.00 20 1011.6
20260831232004 85 213 1.0 4.0 0.00 0.00 0.00 18 1011.6
20260831231503 85 176 1.0 4.0 0.00 0.00 0.00 18 1011.7
20260831231003 85 164 1.0 4.0 0.00 0.00 0.00 19 1011.8
20260831230503 84 142 1.0 3.0 0.00 0.00 0.00 19 1011.8
20260831230217 83 88 1.0 3.0 0.00 0.00 0.00 19 1011.9
20260831225718 83 49 1.0 3.0 0.00 0.00 0.00 20 1011.9
20260831225003 83 27 1.0 3.0 0.00 0.00 0.00 21 1012.0
20260831224504 83 332 1.0 6.0 0.00 0.00 0.00 22 1011.9
20260831224003 83 325 1.0 6.0 0.00 0.00 0.00 21 1012.0
20260831223503 83 201 1.0 5.0 0.00 0.00 0.00 22 1012.2
20260831223003 83 218 1.0 5.0 0.00 0.00 0.00 20 1012.2
20260831222503 84 229 1.0 3.0 0.00 0.00 0.00 19 1012.2
20260831222003 84 226 1.0 3.0 0.00 0.00 0.00 21 1012.3
20260831221718 84 226 1.0 3.0 0.00 0.00 0.00 22 1012.3
20260831221003 83 250 1.0 2.0 0.00 0.00 0.00 20 1012.5
20260831220503 83 231 1.0 4.0 0.00 0.00 0.00 22 1012.7
20260831220003 83 103 1.0 4.0 0.00 0.00 0.00 20 1012.7
20260831215503 83 115 1.0 4.0 0.00 0.00 0.00 20 1012.8
20260831215003 84 154 1.0 4.0 0.00 0.00 0.00 20 1012.8
20260831214503 83 178 1.0 5.0 0.00 0.00 0.00 20 1012.8
20260831214005 83 221 1.0 5.0 0.00 0.00 0.00 21 1012.9
20260831213503 82 228 1.0 3.0 0.00 0.00 0.00 21 1012.9
20260831213003 82 225 1.0 4.0 0.00 0.00 0.00 21 1012.9
20260831212503 82 229 2.0 4.0 0.00 0.00 0.00 21 1013.0
20260831212003 82 217 2.0 5.0 0.00 0.00 0.00 23 1013.1
20260831211503 82 199 1.0 5.0 0.00 0.00 0.00 20 1013.2
20260831211003 83 177 1.0 4.0 0.00 0.00 0.00 20 1013.2
20260831210503 82 126 1.0 3.0 0.00 0.00 0.00 21 1013.4
20260831210218 82 105 2.0 4.0 0.00 0.00 0.00 22 1013.3
20260831205503 81 20 2.0 9.0 0.00 0.00 0.00 24 1013.4
20260831205218 81 355 1.0 9.0 0.00 0.00 0.00 23 1013.4
20260831204503 80 312 1.0 4.0 0.00 0.00 0.00 23 1013.5
20260831204003 80 292 1.0 3.0 0.00 0.00 0.00 23 1013.5
20260831203503 80 35 1.0 3.0 0.00 0.00 0.00 23 1013.6
20260831203003 81 115 1.0 5.0 0.00 0.00 0.00 22 1013.7
20260831202503 81 145 1.0 5.0 0.00 0.00 0.00 23 1013.8
20260831202003 80 111 0.0 3.0 0.00 0.00 0.00 24 1013.9
20260831201504 79 81 0.0 2.0 0.00 0.00 0.00 25 1013.9
20260831201003 79 342 1.0 2.0 0.00 0.00 0.00 24 1013.9
20260831200503 79 345 1.0 4.0 0.00 0.00 0.00 25 1014.1
20260831200218 79 64 1.0 4.0 0.00 0.00 0.00 26 1014.1
20260831195503 78 91 1.0 5.0 0.00 0.00 0.00 24 1014.2
20260831195003 78 51 1.0 5.0 0.00 0.00 0.00 25 1014.3
20260831194503 78 46 1.0 5.0 0.00 0.00 0.00 26 1014.4
20260831194003 78 86 1.0 5.0 0.00 0.00 0.00 24 1014.4
20260831193717 78 97 1.0 5.0 0.00 0.00 0.00 25 1014.4
20260831193003 78 103 1.0 4.0 0.00 0.00 0.00 26 1014.5
20260831192503 78 107 1.0 4.0 0.00 0.00 0.00 27 1014.7
20260831192003 77 96 1.0 4.0 0.00 0.00 0.00 27 1014.8
20260831191503 77 101 1.0 5.0 0.00 0.00 0.00 27 1014.7
20260831191003 77 139 1.0 5.0 0.00 0.00 0.00 27 1014.7
20260831190716 77 127 1.0 5.0 0.00 0.00 0.00 27 1014.8
20260831190003 76 105 1.0 3.0 0.00 0.00 0.00 27 1014.9
20260831185503 76 93 1.0 7.0 0.00 0.00 0.00 28 1015.0
20260831185003 75 84 1.0 7.0 0.00 0.00 0.00 28 1015.1
20260831184503 75 81 1.0 7.0 0.00 0.00 0.00 28 1015.2
20260831184003 74 73 1.0 6.0 0.00 0.00 0.00 29 1015.2
20260831183503 74 78 2.0 5.0 0.00 0.00 0.00 30 1015.2
20260831183004 73 84 2.0 5.0 0.00 0.00 0.00 33 1015.3
20260831182504 73 81 2.0 5.0 0.00 0.00 0.00 31 1015.3
20260831182003 73 86 2.0 6.0 0.00 0.00 0.00 32 1015.5
20260831181503 72 80 2.0 6.0 0.00 0.00 0.00 32 1015.5
20260831181003 72 75 2.0 8.0 0.00 0.00 0.00 32 1015.5
20260831180503 71 81 3.0 8.0 0.00 0.00 0.00 32 1015.5
20260831180003 71 86 3.0 10.0 0.00 0.00 0.00 32 1015.6
20260831175503 71 90 2.0 10.0 0.00 0.00 0.00 32 1015.7
20260831175003 71 81 2.0 7.0 0.00 0.00 0.00 34 1015.7
20260831174503 71 73 2.0 6.0 0.00 0.00 0.00 33 1015.8
20260831174003 70 62 2.0 6.0 0.00 0.00 0.00 35 1015.8
20260831173503 70 57 2.0 7.0 0.00 0.00 0.00 35 1015.9
20260831173003 70 85 2.0 7.0 0.00 0.00 0.00 35 1015.8
20260831172503 69 90 2.0 6.0 0.00 0.00 0.00 35 1015.9
20260831172003 69 68 1.0 6.0 0.00 0.00 0.00 36 1016.0
20260831171504 68 328 1.0 4.0 0.00 0.00 0.00 37 1016.0
20260831171003 68 348 1.0 4.0 0.00 0.00 0.00 37 1016.0
20260831170503 68 40 2.0 5.0 0.00 0.00 0.00 37 1016.0
20260831170003 67 60 2.0 6.0 0.00 0.00 0.00 38 1016.0
20260831165718 67 70 1.0 6.0 0.00 0.00 0.00 38 1016.0
20260831165003 67 69 1.0 4.0 0.00 0.00 0.00 38 1016.0
20260831164718 66 63 1.0 5.0 0.00 0.00 0.00 40 1016.0
20260831164003 66 90 2.0 5.0 0.00 0.00 0.00 39 1016.2
20260831163503 66 53 1.0 5.0 0.00 0.00 0.00 40 1016.2
20260831163003 65 46 1.0 4.0 0.00 0.00 0.00 41 1016.2
20260831162503 65 88 2.0 5.0 0.00 0.00 0.00 41 1016.2
20260831162005 64 88 2.0 8.0 0.00 0.00 0.00 42 1016.2
20260831161503 64 88 1.0 8.0 0.00 0.00 0.00 43 1016.3
20260831161003 63 76 1.0 6.0 0.00 0.00 0.00 43 1016.4
20260831160503 63 305 1.0 3.0 0.00 0.00 0.00 45 1016.4
20260831160003 62 309 0.0 3.0 0.00 0.00 0.00 45 1016.4
20260831155503 62 146 0.0 4.0 0.00 0.00 0.00 46 1016.4
20260831155003 61 290 1.0 4.0 0.00 0.00 0.00 48 1016.4
20260831154503 60 312 1.0 4.0 0.00 0.00 0.00 49 1016.4
20260831154003 60 306 1.0 4.0 0.00 0.00 0.00 50 1016.4
20260831153717 59 295 1.0 4.0 0.00 0.00 0.00 50 1016.4
20260831153003 58 262 1.0 3.0 0.00 0.00 0.00 52 1016.5
20260831152503 58 237 1.0 3.0 0.00 0.00 0.00 52 1016.6
20260831152003 57 105 1.0 4.0 0.00 0.00 0.00 54 1016.5
20260831151503 56 92 2.0 4.0 0.00 0.00 0.00 55 1016.5
20260831151218 56 91 2.0 5.0 0.00 0.00 0.00 56 1016.5
20260831150503 54 91 2.0 6.0 0.00 0.00 0.00 58 1016.6
20260831150003 53 92 1.0 7.0 0.00 0.00 0.00 60 1016.5
20260831145503 52 95 1.0 7.0 0.00 0.00 0.00 61 1016.5
20260831145003 52 99 1.0 4.0 0.00 0.00 0.00 62 1016.6
20260831144503 51 96 1.0 3.0 0.00 0.00 0.00 63 1016.5
20260831144003 50 94 1.0 4.0 0.00 0.00 0.00 64 1016.6
20260831143717 50 94 1.0 5.0 0.00 0.00 0.00 65 1016.5
20260831143003 48 97 1.0 5.0 0.00 0.00 0.00 68 1016.5
20260831142503 47 98 0.0 3.0 0.00 0.00 0.00 71 1016.3
20260831142003 46 0 2.0 2.0 0.00 0.00 0.00 69 1016.3
20260831141503 45 0 2.0 2.0 0.00 0.00 0.00 71 1016.4
20260831141003 44 0 1.0 1.0 0.00 0.00 0.00 73 1016.4
20260831140503 42 0 1.0 1.0 0.00 0.00 0.00 75 1016.4
20260831140003 41 0 1.0 1.0 0.00 0.00 0.00 77 1016.4
20260831135717 40 0 1.0 1.0 0.00 0.00 0.00 77 1016.2
20260831135003 38 0 0.0 0.0 0.00 0.00 0.00 76 1016.3
20260831134503 37 0 0.0 0.0 0.00 0.00 0.00 76 1016.3
20260831134003 37 0 0.0 0.0 0.00 0.00 0.00 76 1016.4
20260831133503 37 0 0.0 0.0 0.00 0.00 0.00 76 1016.4
20260831133003 37 0 0.0 0.0 0.00 0.00 0.00 76 1016.2
20260831132503 37 0 0.0 0.0 0.00 0.00 0.00 76 1016.2
20260831132003 37 0 0.0 0.0 0.00 0.00 0.00 76 1016.2
20260831131503 37 0 0.0 0.0 0.00 0.00 0.00 76 1016.2
20260831131003 37 0 0.0 0.0 0.00 0.00 0.00 76 1016.2
20260831130503 37 0 0.0 0.0 0.00 0.00 0.00 76 1016.2
20260831130004 37 0 0.0 0.0 0.00 0.00 0.00 76 1016.0
20260831125503 37 0 0.0 0.0 0.00 0.00 0.00 76 1016.0
20260831125003 37 0 0.0 0.0 0.00 0.00 0.00 76 1016.1
20260831124503 37 0 0.0 0.0 0.00 0.00 0.00 76 1016.0
20260831124003 37 0 0.0 0.0 0.00 0.00 0.00 76 1016.1
20260831123503 37 0 0.0 0.0 0.00 0.00 0.00 76 1016.1
20260831123003 37 0 0.0 0.0 0.00 0.00 0.00 76 1016.1
20260831122718 37 0 0.0 0.0 0.00 0.00 0.00 76 1016.1
20260831122217 37 0 0.0 0.0 0.00 0.00 0.00 76 1016.2
20260831121503 37 0 0.0 0.0 0.00 0.00 0.00 76 1016.3
20260831121003 37 0 0.0 0.0 0.00 0.00 0.00 76 1016.3
20260831120503 37 0 1.0 1.0 0.00 0.00 0.00 76 1016.3
20260831120003 37 0 1.0 1.0 0.00 0.00 0.00 76 1016.3
20260831115503 37 0 1.0 1.0 0.00 0.00 0.00 77 1016.3
20260831115003 38 0 1.0 1.0 0.00 0.00 0.00 75 1016.2
20260831114503 39 0 0.0 2.0 0.00 0.00 0.00 73 1016.2
20260831114003 39 0 0.0 2.0 0.00 0.00 0.00 74 1016.2
20260831113503 39 0 0.0 2.0 0.00 0.00 0.00 79 1016.2
20260831113217 38 0 0.0 1.0 0.00 0.00 0.00 78 1016.2
20260831112718 38 0 0.0 1.0 0.00 0.00 0.00 80 1016.3
20260831112216 37 0 0.0 1.0 0.00 0.00 0.00 80 1016.2
20260831111717 36 0 0.0 1.0 0.00 0.00 0.00 79 1016.2
20260831111003 36 0 0.0 0.0 0.00 0.00 0.00 79 1016.2
20260831110503 36 0 0.0 0.0 0.00 0.00 0.00 77 1016.2
20260831110003 37 0 0.0 0.0 0.00 0.00 0.00 78 1016.3
20260831105503 37 0 0.0 0.0 0.00 0.00 0.00 77 1016.3
20260831105003 37 0 0.0 0.0 0.00 0.00 0.00 78 1016.2
20260831104503 37 0 0.0 0.0 0.00 0.00 0.00 78 1016.1
20260831104003 37 0 0.0 0.0 0.00 0.00 0.00 76 1016.1
20260831103717 38 0 0.0 0.0 0.00 0.00 0.00 76 1016.2
20260831103003 38 0 0.0 0.0 0.00 0.00 0.00 78 1016.2
20260831102503 38 0 0.0 0.0 0.00 0.00 0.00 77 1016.2
20260831102218 38 0 0.0 0.0 0.00 0.00 0.00 76 1016.3
20260831101503 38 0 0.0 0.0 0.00 0.00 0.00 74 1016.3
20260831101003 38 0 0.0 0.0 0.00 0.00 0.00 75 1016.4
20260831100503 38 0 0.0 2.0 0.00 0.00 0.00 75 1016.4
20260831100003 39 0 0.0 2.0 0.00 0.00 0.00 74 1016.4
20260831095503 39 0 0.0 1.0 0.00 0.00 0.00 74 1016.4
20260831095003 39 0 0.0 1.0 0.00 0.00 0.00 75 1016.4
20260831094503 39 0 0.0 1.0 0.00 0.00 0.00 74 1016.4
20260831094003 40 0 0.0 1.0 0.00 0.00 0.00 71 1016.4
20260831093503 40 0 0.0 1.0 0.00 0.00 0.00 75 1016.4
20260831093003 40 0 0.0 0.0 0.00 0.00 0.00 73 1016.5
20260831092503 40 0 0.0 0.0 0.00 0.00 0.00 74 1016.5
20260831092003 39 0 0.0 1.0 0.00 0.00 0.00 74 1016.6
20260831091503 39 0 0.0 1.0 0.00 0.00 0.00 76 1016.6
20260831091003 38 0 0.0 1.0 0.00 0.00 0.00 77 1016.8
20260831090503 38 0 0.0 0.0 0.00 0.00 0.00 77 1016.8
20260831090003 37 0 0.0 0.0 0.00 0.00 0.00 75 1016.8
20260831085503 38 0 0.0 0.0 0.00 0.00 0.00 75 1016.9
20260831085003 38 0 0.0 0.0 0.00 0.00 0.00 75 1016.9
20260831084503 38 0 0.0 0.0 0.00 0.00 0.00 75 1016.9
20260831084003 38 0 0.0 0.0 0.00 0.00 0.00 76 1016.9
20260831083503 38 0 0.0 0.0 0.00 0.00 0.00 76 1016.8
20260831083003 38 0 0.0 0.0 0.00 0.00 0.00 75 1016.8
20260831082503 38 0 0.0 0.0 0.00 0.00 0.00 75 1016.8
20260831082003 39 0 0.0 0.0 0.00 0.00 0.00 74 1016.8
20260831081503 39 0 0.0 0.0 0.00 0.00 0.00 75 1016.8
20260831081003 39 0 0.0 0.0 0.00 0.00 0.00 74 1016.8
20260831080718 39 0 0.0 0.0 0.00 0.00 0.00 73 1016.8
20260831080217 39 0 0.0 0.0 0.00 0.00 0.00 73 1016.8
20260831075503 39 0 0.0 0.0 0.00 0.00 0.00 73 1016.9
20260831075003 40 0 0.0 0.0 0.00 0.00 0.00 72 1016.9
20260831074503 40 0 0.0 0.0 0.00 0.00 0.00 71 1016.9
20260831074003 40 0 0.0 0.0 0.00 0.00 0.00 70 1016.9
20260831073503 41 0 0.0 0.0 0.00 0.00 0.00 71 1017.0
20260831073003 41 0 0.0 1.0 0.00 0.00 0.00 71 1017.0
20260831072503 42 0 0.0 1.0 0.00 0.00 0.00 70 1017.0
20260831072003 42 0 0.0 1.0 0.00 0.00 0.00 69 1017.0
20260831071503 43 0 0.0 0.0 0.00 0.00 0.00 69 1016.9
20260831071003 43 0 0.0 1.0 0.00 0.00 0.00 67 1017.0
20260831070503 44 0 0.0 1.0 0.00 0.00 0.00 67 1016.9
20260831070004 44 0 0.0 1.0 0.00 0.00 0.00 69 1017.0
20260831065503 43 0 0.0 3.0 0.00 0.00 0.00 69 1016.9
20260831065003 43 0 0.0 3.0 0.00 0.00 0.00 70 1017.0
20260831064503 41 0 0.0 3.0 0.00 0.00 0.00 71 1017.0
20260831064003 41 0 0.0 0.0 0.00 0.00 0.00 69 1016.9
20260831063503 42 0 0.0 0.0 0.00 0.00 0.00 69 1017.0
20260831063217 42 0 0.0 1.0 0.00 0.00 0.00 70 1016.9
20260831062718 42 0 0.0 1.0 0.00 0.00 0.00 69 1017.0
20260831062003 42 0 0.0 0.0 0.00 0.00 0.00 68 1016.9
20260831061718 42 0 0.0 0.0 0.00 0.00 0.00 70 1016.9
20260831061217 42 0 0.0 0.0 0.00 0.00 0.00 69 1016.9
20260831060503 43 0 0.0 0.0 0.00 0.00 0.00 68 1016.8
20260831060003 43 0 0.0 0.0 0.00 0.00 0.00 67 1016.8
20260831055717 44 0 0.0 0.0 0.00 0.00 0.00 66 1016.8
20260831055003 44 0 0.0 0.0 0.00 0.00 0.00 66 1016.8
20260831054503 44 0 0.0 1.0 0.00 0.00 0.00 67 1016.9
20260831054003 45 0 0.0 1.0 0.00 0.00 0.00 67 1016.9
20260831053503 45 0 0.0 0.0 0.00 0.00 0.00 64 1016.9
20260831053003 45 0 0.0 0.0 0.00 0.00 0.00 64 1016.9
20260831052503 46 0 0.0 0.0 0.00 0.00 0.00 64 1016.9
20260831052218 46 0 0.0 1.0 0.00 0.00 0.00 64 1016.9
20260831051503 46 0 0.0 1.0 0.00 0.00 0.00 65 1016.9
20260831051218 46 0 0.0 1.0 0.00 0.00 0.00 66 1017.0
20260831050503 46 0 0.0 1.0 0.00 0.00 0.00 65 1017.1
20260831050003 46 0 0.0 0.0 0.00 0.00 0.00 65 1017.1
20260831045503 46 0 0.0 0.0 0.00 0.00 0.00 66 1017.1
20260831045218 46 0 0.0 0.0 0.00 0.00 0.00 66 1017.1
20260831044503 46 0 0.0 1.0 0.00 0.00 0.00 61 1017.2
20260831044003 47 0 0.0 1.0 0.00 0.00 0.00 62 1017.2
20260831043503 47 0 0.0 0.0 0.00 0.00 0.00 63 1017.2
20260831043218 47 0 0.0 1.0 0.00 0.00 0.00 64 1017.2
20260831042717 47 0 0.0 1.0 0.00 0.00 0.00 63 1017.2
20260831042218 47 0 0.0 1.0 0.00 0.00 0.00 61 1017.2
20260831041717 48 0 0.0 0.0 0.00 0.00 0.00 61 1017.2
20260831041003 48 0 0.0 0.0 0.00 0.00 0.00 60 1017.2
20260831040503 48 0 0.0 1.0 0.00 0.00 0.00 60 1017.2
20260831040218 48 0 0.0 1.0 0.00 0.00 0.00 59 1017.2
20260831035503 49 0 0.0 1.0 0.00 0.00 0.00 57 1017.1
20260831035003 50 0 0.0 1.0 0.00 0.00 0.00 55 1017.2
20260831034717 50 0 0.0 1.0 0.00 0.00 0.00 60 1017.2
20260831034003 49 139 0.0 2.0 0.00 0.00 0.00 58 1017.2
20260831033503 49 138 0.0 2.0 0.00 0.00 0.00 56 1017.1
20260831033218 50 138 0.0 2.0 0.00 0.00 0.00 56 1017.1
20260831032503 50 0 1.0 1.0 0.00 0.00 0.00 55 1017.1